Regional Weather Roundup
Issued by NWS Austin/San Antonio, TX

Home | Current Version | Previous Version | Text Only | Print | Product List | Glossary On
Versions: 1 2 3 4 5 6 7 8 9 10 11 12 13 14 15 16 17 18 19 20 21 22 23 24 25 26 27 28 29 30 31 32 33 34 35 36 37 38 39 40 41 42 43 44 45 46 47 48 49 50
000
ASUS44 KEWX 121102
RWREWX
SOUTH TEXAS REGIONAL WEATHER ROUNDUP
NATIONAL WEATHER SERVICE AUSTIN/SAN ANTONIO TX
600 AM CDT WED AUG 12 2020

NOTE: "FAIR" INDICATED FEW OR NO CLOUDS BELOW 12,000 FEET WITH NO
SIGNIFICANT WEATHER AND/OR OBSTRUCTIONS TO VISIBILITY.

* - THESE STATIONS ARE NOT NWS OR FAA STATIONS...AND ARE NOT SUBJECT
    TO NWS AND FAA QUALITY CONTROL.

TXZ171-172-183>190-121200-
TEXAS HILL COUNTRY AND EDWARDS PLATEAU

CITY           SKY/WX    TMP DP  RH WIND       PRES   REMARKS
JUNCTION       CLEAR     79  72  79 S6        30.01R
*LLANO         MOCLDY    79  72  78 S6G12     29.96S
BURNET         CLEAR     77  70  79 S6        30.00S
*HORSESHOE BAY CLEAR     79  72  78 S5        29.98S
*LAGO VISTA    PTCLDY    77  73  87 SW7       29.99S
*KERRVILLE     MOCLDY    74  70  88 S6        30.02S
*FREDERICKSBRG CLEAR     75  69  83 S3        30.02R
*ROCKSPRINGS   CLEAR     75  70  83 SE9       30.07R
*BOERNE        CLEAR     73  73 100 S3        30.02S
*CASTROVILLE   CLEAR     78  75  91 SE3       29.99S
HONDO          CLEAR     77  72  84 SE6       29.98R
*UVALDE        CLEAR     76  72  87 E6        29.99R
DEL RIO        CLEAR     83  69  62 E7        29.93R
*LAUGHLIN AFB  NOT AVBL
*SPOFFORD      NOT AVBL
*EAGLE PASS    CLEAR     81  70  69 SE9G16    29.94S
CARRIZO SPRGS  CLEAR     79  70  73 SE3       29.94R
$$

TXZ173-191>194-202-209-217>225-228-121200-
CENTRAL AND SOUTH CENTRAL TEXAS

CITY           SKY/WX    TMP DP  RH WIND       PRES   REMARKS
GEORGETOWN     CLEAR     79  73  82 S8        29.98R
*TAYLOR        PTCLDY    78  75  91 S9        29.96R
AUSTIN/BERGSTM CLEAR     79  76  90 S7        29.96R
AUSTIN/MABRY   PTCLDY    79  73  82 S3        29.97S
*PFLUGERVILLE  MOCLDY    77  75  94 S9          N/A
SAN MARCOS     MOCLDY    77  75  93 SW6       29.98S
NEW BRAUNFELS  MOCLDY    78  74  87 SW5       29.96S
*RANDOLPH AFB  CLEAR     77  74  90 S6        29.98R
*SEGUIN        NOT AVBL
SAN ANTONIO    CLEAR     79  73  82 S8        29.98S
STINSON FIELD  CLEAR     74  73  97 SE3       29.96S
*KELLY FIELD   CLEAR     76  73  90 S6        29.96S
*PLEASANTON    CLEAR     76  74  92 CALM      29.97S
*KENEDY        CLEAR     78  76  94 SE3       29.97S FOG
*LA GRANGE     CLEAR     78  78 100 S3        29.94R
*GIDDINGS      CLEAR     78  76  94 SW5       29.97R
*GONZALES      CLOUDY    78  78  99 S6        29.96S
$$

TXZ163>164-176>182-195>201-210>213-226-227-235-121200-
SOUTHEAST TEXAS

CITY           SKY/WX    TMP DP  RH WIND       PRES   REMARKS
COLLEGE STN    PTCLDY    78  76  93 S5        29.96S
*BRYAN         CLEAR     78  78 100 S3        29.97S
*CALDWELL      PTCLDY    77 N/A N/A S5        29.97R
*CROCKETT      NOT AVBL
*BRENHAM       PTCLDY    78  77  95 CALM      29.97R
HUNTSVILLE     CLEAR     80  75  84 S6        29.96S
CONROE         MOCLDY    78  75  90 CALM      29.97R
HOUSTON BUSH   PTCLDY    81  76  84 S3        29.96R
HOUSTON HOBBY  PTCLDY    80  76  87 SW6       29.95S
*HOUSTON SW AP PTCLDY    75  75 100 CALM      29.97S
PEARLAND       PTCLDY    79  74  84 CALM      29.97S
HOUSTON HOOKS  PTCLDY    79  74  84 SW6       29.96R
ELLINGTON FLD  PTCLDY    79  77  94 SW5       29.94F
SUGAR LAND     MOCLDY    79  76  90 S5        29.96R
*HOUSTON EXEC    N/A     77  77 100 S7        29.97S
*CLEVELAND MUN CLEAR     75  74  99 CALM      29.98R FOG
*WHARTON       CLEAR     75  73  94 S3        29.96S
*COLUMBUS      FAIR      76  75  98 S5        29.97S
*EAGLE LAKE    CLEAR     78  76  96 S3        29.95F
$$

TXZ214>216-236>238-121200-
THE UPPER TEXAS COAST

CITY           SKY/WX    TMP DP  RH WIND       PRES   REMARKS
*ORANGE        CLEAR     82  77  85 SW3       29.98R
PORT ARTHUR    CLEAR     76  76 100 S3        29.95S
GALVESTON      CLEAR     86  78  77 S9        29.96S HX  98
ANGLETON       PTCLDY    78  76  93 CALM      29.96S
*BAY CITY      CLEAR     77  75  95 CALM      29.95F
PALACIOS       PTCLDY    84  77  79 S12       29.94F HX  94
$$

TXZ229>234-239>247-121200-
TEXAS COASTAL BEND AND RIO GRANDE PLAINS

CITY           SKY/WX    TMP DP  RH WIND       PRES   REMARKS
VICTORIA       CLEAR     76  74  93 S6        29.95F
*BEEVILLE      CLOUDY    79  79 100 CALM      29.95R
ROCKPORT       NOT AVBL
*PORT ARANSAS  PTCLDY    84  77  79 S15       29.96S HX  94
*PORT LAVACA   NOT AVBL
*INGLESIDE     PTCLDY    84  80  87 S6        29.94S HX  97
CORPUS CHRISTI PTCLDY    81  78  91 S6        29.95R
CORPUS NAS     NOT AVBL
*ROBSTOWN      CLEAR     78  75  88 S3        29.95R
ALICE          CLEAR     78  76  93 S6        29.94S
KINGSVILLE NAS CLEAR     78  76  93 S3        29.95R
COTULLA        CLEAR     78  76  93 SE6       29.95R
LAREDO         CLEAR     79  74  84 SE9       29.93R
$$

TXZ248>255-121200-
DEEP SOUTH TEXAS

CITY           SKY/WX    TMP DP  RH WIND       PRES   REMARKS
BROWNSVILLE    CLEAR     81  79  94 SE6       29.94
PORT ISABEL    NOT AVBL
HARLINGEN      NOT AVBL
*HEBBRONVILLE  CLOUDY    76  74  94 S6        29.96S
MCALLEN        NOT AVBL
*WESLACO       MOCLDY    79  76  90 CALM      29.93S
FALFURRIAS     CLEAR     73  73 100 E3        29.94S
EDINBURG       CLEAR    N/A N/A N/A SE5       29.94S
*ZAPATA        CLEAR     81  76  85 SE7       29.94R
$$

TXZ213>215-236>238-242>244-246-247-251-254-255-121200-
CMAN STATIONS

STATION/POSITION TIME  TEMP    WIND        PRES    WAVE
                       AIR SEA DIR/SP/G            HT/PER
                 (UTC) (F)     (DEG/KT/KT) (MB)    (FT/S)
SABINE PASS      1030   83 89  210/  6/  8 1016.2
NORTH JETTY/GLS  1030   85 87  210/ 16/ 19 1013.3
EAGLE POINT      1030   83 88  240/  5/  8 1013.8
MORGANS POINT    1030   82 89  220/  5/  7 1014.1
PORT O`CONNOR    1024   84 90  180/ 13/ 16 1013.8
PORT ARANSAS     1000   85 86  170/ 16/ 18 1013.8
MALAQUITE BEACH  1024   84     150/ 16/ 17   N/A
BAFFIN BAY       1024   83 86  140/ 13/ 16 1013.2
PORT ISABEL      1024   83 86  160/  9/ 12 1015.6
$$



USA.gov is the U.S. government's official web portal to all federal, state and local government web resources and services.